Owen Roberts, Cayman Islands

6:07 PM EST on December 12, 2017 (GMT -0500)
Roberts International

Weather History for MWCR - November, 2013

Change the Weather History Date:

Saturday, November 23, 2013

  Actual Average Record
Temperature  
Mean Temperature 82 °F -  
Max Temperature 87 °F 82 °F 87 °F (1997)
Min Temperature 78 °F 74 °F 69 °F (1999)
Cooling Degree Days 18    
Growing Degree Days 32 (Base 50)    
Moisture  
Dew Point 78 °F    
Average Humidity 85    
Maximum Humidity 94    
Minimum Humidity 74    
Precipitation  
Precipitation 0.00 in - - ()
Sea Level Pressure  
Sea Level Pressure 29.91 in    
Wind  
Wind Speed 9 mph ()    
Max Wind Speed 17 mph    
Max Gust Speed 26 mph    
Visibility 6.1 miles    
Events Rain , Thunderstorm    
Averages and records for this station are not official NWS values.
T = Trace of Precipitation, MM = Missing Value Source: Averaged Metar Reports

Daily Weather History Graph

Daily Weather History Graph

Search for Another Location

Airport or City:

Trip Planner

Search our weather history database for the weather conditions in past years. The results will help you decide how hot, cold, wet, or windy it might be!

Date:

Astronomy

Nov. 23, 2013 Rise Set
Actual Time 6:37 AM EST 5:45 PM EST
Civil Twilight 6:14 AM EST 6:09 PM EST
Nautical Twilight 5:47 AM EST 6:35 PM EST
Astronomical Twilight 5:21 AM EST 7:02 PM EST
Moon 10:55 PM EST (11/23) 11:08 AM EST (11/23)
Length of Visible Light 11h 54m
Length of Day
11h 07m
Waning Gibbous, 70% of the Moon is Illuminated
Nov 23
Waning Gibbous
Nov 25
Last Quarter
Dec 2
New
Dec 9
First Quarter
Dec 17
Full

Hourly Weather History & Observations

Time (EST) Temp. Heat Index Dew Point Humidity Pressure Visibility Wind Dir Wind Speed Gust Speed Precip Events Conditions
6:00 AM 80.6 °F 86.2 °F 75.2 °F 84% 29.92 in 6.2 mi East 8.1 mph - N/A Thunderstorm Thunderstorm
7:00 AM 80 °F - 76 °F 86% 29.94 in 6 mi East 2.3 mph - -  
7:00 AM 80.6 °F 87.1 °F 77.0 °F 89% 29.92 in 6.2 mi East 2.3 mph - N/A   Partly Cloudy
8:00 AM 82.4 °F 92.4 °F 78.8 °F 89% 29.95 in 6.2 mi ENE 10.4 mph - N/A   Scattered Clouds
9:00 AM 82.4 °F 92.4 °F 78.8 °F 89% 29.95 in 6.2 mi ENE 12.7 mph - N/A   Scattered Clouds
10:00 AM 86.0 °F 101.9 °F 80.6 °F 84% 29.95 in 6.2 mi East 16.1 mph - N/A   Scattered Clouds
11:00 AM 86.0 °F 101.9 °F 80.6 °F 84% 29.95 in 6.2 mi East 16.1 mph - N/A   Scattered Clouds
12:00 PM 86.0 °F 101.9 °F 80.6 °F 84% 29.95 in 6.2 mi ENE 13.8 mph - N/A   Scattered Clouds
1:00 PM 86 °F - 81 °F 82% 29.92 in 6 mi East 17.3 mph - -   Partly Cloudy
1:00 PM 86.0 °F 101.9 °F 80.6 °F 84% 29.92 in 6.2 mi East 17.3 mph - N/A   Scattered Clouds
2:00 PM 86.0 °F 96.9 °F 77.0 °F 74% 29.89 in 6.2 mi ENE 13.8 mph - N/A   Scattered Clouds
3:00 PM 86.0 °F 96.9 °F 77.0 °F 74% 29.86 in 6.2 mi ENE 12.7 mph - N/A   Partly Cloudy
4:00 PM 86.0 °F 101.9 °F 80.6 °F 84% 29.86 in 6.2 mi East 13.8 mph 26.5 mph N/A   Partly Cloudy
4:55 PM 84.2 °F 98.3 °F 80.6 °F 89% 29.86 in 6.2 mi East 12.7 mph - N/A   Partly Cloudy
5:57 PM 82.4 °F 89.5 °F 75.2 °F 79% 29.89 in - North - - N/A   Partly Cloudy
6:55 PM 80.6 °F 87.1 °F 77.0 °F 89% 29.89 in - East 10.4 mph - N/A   Volcanic Ash
7:00 PM 80 °F - 77 °F 86% 29.91 in 6 mi East 10.4 mph - -   Clear
7:52 PM 78.8 °F - 73.4 °F 83% 29.92 in 5.6 mi East 16.1 mph - N/A Rain Light Rain Showers
8:55 PM 78.8 °F - 77.0 °F 94% 29.92 in 6.2 mi ENE 9.2 mph - N/A   Partly Cloudy
9:50 PM 78.8 °F - 77.0 °F 94% 29.92 in 6.2 mi East 10.4 mph - N/A   Partly Cloudy